Home > Weather > Kuwait City > Past weeks

Flag for Kuwait Weather for the Past 2 Weeks in Kuwait City, Kuwait

Now
82 °F

Clear.


Feels Like: 80 °F
Forecast: 77 / 98 °F
Wind: 5 mph from West

Location: Kuwait International Airport

Current Time: May 4, 2016 at 1:49:31 AM

Latest Report: May 4, 2016 at 1:00 AM


Visibility: 5 mi

Pressure: 29.71 "Hg

Humidity: 23%

Dew Point: 41 °F

Location of Kuwait CityLocation

Historic Weather in Kuwait City — Graph

°F

Kuwait City Temperature Yesterday

Maximum temperature yesterday: 106 °F (at 1:00 PM)
Minimum temperature yesterday: 79 °F (at 5:00 AM)
Average temperature yesterday: 93 °F

High & Low Weather Summary for the Past Weeks

 TemperatureHumidityPressure
High108 °F (Apr 26, 1:00 PM)66% (Apr 27, 7:00 AM)30.01 "Hg (Apr 27, 7:00 AM)
Low61 °F (Apr 22, 5:00 AM)7% (Apr 22, 1:00 PM)29.65 "Hg (Apr 24, 3:00 PM)
Average85 °F26%29.81 "Hg
* Reported Midnight between Apr 18 and Apr 19 — Midnight between May 3 and May 4, Kuwait City, Weather by CustomWeather, © 2016

Note: Actual official high and low records may vary slightly from our data, if they occured in-between our weather recording intervals... More about our weather records

Advertising

Kuwait City Weather History for the Previous 24 Hours

Scroll right to see more
 ConditionsComfort  
Time TempWeatherWind HumidityBarometerVisibility
12:00 AM
Wed, May 4
91 °FClear.8 mph17%29.71 "Hg5 mi
11:00 PM
Tue, May 3
93 °FClear.12 mph16%29.74 "Hg4 mi
10:00 PM95 °FClear.12 mph18%29.74 "Hg4 mi
9:00 PM88 °FClear.No wind33%29.74 "Hg4 mi
8:00 PM88 °FClear.3 mph38%29.74 "Hg4 mi
7:00 PM91 °FClear.6 mph34%29.71 "Hg4 mi
6:00 PM95 °FClear.9 mph30%29.68 "Hg4 mi
5:00 PM97 °FClear.13 mph22%29.68 "Hg4 mi
4:00 PM100 °FClear.12 mph18%29.68 "Hg4 mi
3:00 PM100 °FClear.10 mph18%29.68 "Hg4 mi
2:00 PM102 °FClear.8 mph18%29.71 "Hg4 mi
1:00 PM106 °FClear.5 mph14%29.68 "Hg4 mi
12:00 PM104 °FClear.5 mph12%29.71 "Hg4 mi
11:00 AM100 °FSunny.6 mph15%29.74 "Hg4 mi
10:00 AM97 °FSunny.7 mph19%29.74 "Hg5 mi
9:00 AM93 °FSunny.9 mph21%29.74 "Hg10 mi
8:00 AM90 °FSunny.12 mph24%29.74 "Hg10 mi
7:00 AM86 °FSunny.8 mph25%29.74 "Hg4 mi
6:00 AM81 °FSunny.6 mph30%29.71 "Hg10 mi
5:00 AM79 °FClear.6 mph32%29.71 "Hg10 mi
1:00 AM81 °FClear.8 mph32%29.71 "Hg10 mi
Weather by CustomWeather, © 2016

See weather overviewHow to use our weather pages